Change the Weather History Date:

Tuesday, November 27, 2012

  Actual Average (KHKY) Record (KHKY)
Temperature  
Mean Temperature 46 °F -  
Max Temperature 51 °F 57 °F 77 °F (1985)
Min Temperature 41 °F 39 °F 16 °F (1950)
Degree Days  
Heating Degree Days 19    
Moisture  
Dew Point 41 °F    
Average Humidity 83    
Maximum Humidity 100    
Minimum Humidity 57    
Precipitation  
Precipitation 0.02 in - - ()
Sea Level Pressure  
Sea Level Pressure 30.18 in    
Wind  
Wind Speed 1 mph (North)    
Max Wind Speed 5 mph    
Max Gust Speed -    
Visibility 9 miles    
Events Rain    
Averages and records for this station are not official NWS values.
T = Trace of Precipitation, MM = Missing Value Source: NWS Daily Summary

Daily Weather History Graph

Daily Weather History Graph

Search for Another Location

Airport or City:

Trip Planner

Search our weather history database for the weather conditions in past years. The results will help you decide how hot, cold, wet, or windy it might be!

Date:

Astronomy

Nov. 27, 2012 Rise Set
Actual Time 7:14 AM EST 5:13 PM EST
Civil Twilight 6:46 AM EST 5:41 PM EST
Nautical Twilight 6:15 AM EST 6:12 PM EST
Astronomical Twilight 5:44 AM EST 6:43 PM EST
Moon 4:43 PM EST (11/27) 6:19 AM EST (11/27)
Length of Visible Light 10h 54m
Length of Day
9h 58m
Waxing Gibbous, 99% of the Moon is Illuminated
Nov 27
Waxing Gibbous
Nov 28
Full
Dec 6
Last Quarter
Dec 13
New
Dec 20
First Quarter

Hourly Weather History & Observations

Time (EST) Temp. Windchill Dew Point Humidity Pressure Visibility Wind Dir Wind Speed Gust Speed Precip Events Conditions
12:15 AM 42.8 °F - 32.0 °F 66% 30.17 in 10.0 mi Calm Calm - N/A   Overcast
12:35 AM 44.6 °F - 32.0 °F 61% 30.19 in 10.0 mi Calm Calm - N/A Rain Light Rain
12:55 AM 44.6 °F 43.1 °F 32.0 °F 61% 30.18 in 10.0 mi North 3.5 mph - N/A   Overcast
1:15 AM 46.4 °F - 32.0 °F 57% 30.18 in 10.0 mi Calm Calm - N/A   Overcast
1:35 AM 44.6 °F - 33.8 °F 66% 30.17 in 10.0 mi Calm Calm - N/A Rain Rain
1:55 AM 44.6 °F - 37.4 °F 76% 30.17 in 10.0 mi Calm Calm - N/A Rain Light Rain
2:15 AM 42.8 °F - 41.0 °F 93% 30.16 in 10.0 mi Calm Calm - N/A Rain Light Rain
2:35 AM 44.6 °F - 41.0 °F 87% 30.16 in 10.0 mi Calm Calm - N/A   Overcast
2:55 AM 42.8 °F - 41.0 °F 93% 30.16 in 10.0 mi Calm Calm - N/A   Overcast
3:15 AM 42.8 °F - 35.6 °F 76% 30.16 in 10.0 mi Calm Calm - N/A   Overcast
3:35 AM 42.8 °F - 37.4 °F 81% 30.16 in 10.0 mi Calm Calm - N/A   Overcast
3:55 AM 41.0 °F - 37.4 °F 87% 30.15 in 10.0 mi Calm Calm - N/A   Mostly Cloudy
4:15 AM 41.0 °F - 39.2 °F 93% 30.14 in 10.0 mi Calm Calm - N/A Rain Light Rain
4:35 AM 42.8 °F - 37.4 °F 81% 30.15 in 10.0 mi Calm Calm - N/A Rain Light Rain
4:55 AM 42.8 °F - 39.2 °F 87% 30.15 in 7.0 mi Calm Calm - 0.01 in Rain Light Rain
5:15 AM 42.8 °F - 39.2 °F 87% 30.15 in 10.0 mi Calm Calm - N/A Rain Light Rain
5:35 AM 42.8 °F - 41.0 °F 93% 30.15 in 7.0 mi Calm Calm - N/A   Overcast
5:55 AM 42.8 °F - 41.0 °F 93% 30.14 in 5.0 mi Calm Calm - N/A   Overcast
6:15 AM 42.8 °F - 41.0 °F 93% 30.15 in 7.0 mi Calm Calm - N/A   Overcast
7:35 AM 42.8 °F - 41.0 °F 93% 30.16 in 5.0 mi Calm Calm - N/A   Mostly Cloudy
7:55 AM 42.8 °F - 42.8 °F 100% 30.16 in 4.0 mi Calm Calm - N/A   Mostly Cloudy
8:15 AM 42.8 °F - 42.8 °F 100% 30.16 in 7.0 mi Calm Calm - N/A   Mostly Cloudy
8:35 AM 44.6 °F 42.2 °F 41.0 °F 87% 30.18 in 10.0 mi NW 4.6 mph - N/A   Scattered Clouds
8:55 AM 42.8 °F - 42.8 °F 100% 30.17 in 5.0 mi Calm Calm - N/A   Mostly Cloudy
9:15 AM 44.6 °F - 42.8 °F 93% 30.18 in 7.0 mi Calm Calm - N/A   Overcast
9:35 AM 46.4 °F 45.2 °F 42.8 °F 87% 30.19 in 10.0 mi NW 3.5 mph - N/A   Overcast
9:55 AM 44.6 °F - 42.8 °F 93% 30.18 in 7.0 mi Calm Calm - N/A   Overcast
10:15 AM 46.4 °F - 42.8 °F 87% 30.19 in 10.0 mi Calm Calm - N/A   Overcast
10:35 AM 46.4 °F 45.2 °F 42.8 °F 87% 30.17 in 10.0 mi NNE 3.5 mph - N/A   Overcast
10:55 AM 46.4 °F - 44.6 °F 93% 30.17 in 7.0 mi Calm Calm - N/A   Mostly Cloudy
11:15 AM 48.2 °F - 44.6 °F 87% 30.18 in 10.0 mi Calm Calm - N/A   Overcast
11:35 AM 48.2 °F - 44.6 °F 87% 30.17 in 10.0 mi Calm Calm - N/A   Overcast
11:55 AM 50.0 °F - 44.6 °F 82% 30.17 in 10.0 mi North 3.5 mph - 0.01 in   Overcast
12:15 PM 50.0 °F - 44.6 °F 82% 30.16 in 10.0 mi NE 4.6 mph - N/A   Overcast
12:35 PM 51.8 °F - 42.8 °F 71% 30.17 in 10.0 mi Calm Calm - N/A   Overcast
12:55 PM 51.8 °F - 42.8 °F 71% 30.16 in 10.0 mi Calm Calm - N/A   Overcast
1:15 PM 51.8 °F - 44.6 °F 76% 30.16 in 10.0 mi Calm Calm - N/A   Overcast
1:35 PM 51.8 °F - 42.8 °F 71% 30.15 in 10.0 mi Calm Calm - N/A   Overcast
1:55 PM 51.8 °F - 42.8 °F 71% 30.14 in 10.0 mi North 3.5 mph - N/A   Overcast
2:15 PM 51.8 °F - 42.8 °F 71% 30.14 in 10.0 mi Calm Calm - N/A   Overcast
2:35 PM 51.8 °F - 42.8 °F 71% 30.14 in 10.0 mi Calm Calm - N/A   Overcast
2:55 PM 51.8 °F - 42.8 °F 71% 30.14 in 10.0 mi Calm Calm - N/A   Overcast
3:15 PM 51.8 °F - 42.8 °F 71% 30.14 in 10.0 mi Calm Calm - N/A   Overcast
3:35 PM 51.8 °F - 42.8 °F 71% 30.14 in 10.0 mi Calm Calm - N/A   Overcast
3:55 PM 51.8 °F - 44.6 °F 76% 30.15 in 10.0 mi Calm Calm - N/A   Overcast
4:15 PM 51.8 °F - 44.6 °F 76% 30.16 in 10.0 mi Calm Calm - N/A   Overcast
4:35 PM 51.8 °F - 44.6 °F 76% 30.17 in 10.0 mi Calm Calm - N/A   Overcast
4:55 PM 51.8 °F - 44.6 °F 76% 30.17 in 10.0 mi Calm Calm - N/A   Mostly Cloudy
5:15 PM 50.0 °F - 42.8 °F 76% 30.17 in 10.0 mi Calm Calm - N/A   Scattered Clouds
5:35 PM 46.4 °F - 42.8 °F 87% 30.18 in 10.0 mi Calm Calm - N/A   Clear
5:55 PM 46.4 °F 45.2 °F 41.0 °F 81% 30.19 in 10.0 mi East 3.5 mph - N/A   Scattered Clouds
6:15 PM 46.4 °F - 42.8 °F 87% 30.20 in 10.0 mi Calm Calm - N/A   Overcast
6:55 PM 46.4 °F - 41.0 °F 81% 30.21 in 10.0 mi Calm Calm - N/A   Overcast
7:15 PM 46.4 °F - 42.8 °F 87% 30.21 in 10.0 mi Calm Calm - N/A   Overcast
7:35 PM 44.6 °F - 41.0 °F 87% 30.22 in 10.0 mi Calm Calm - N/A   Overcast
7:55 PM 44.6 °F - 42.8 °F 93% 30.22 in 10.0 mi Calm Calm - N/A   Overcast
8:15 PM 44.6 °F - 41.0 °F 87% 30.23 in 10.0 mi Calm Calm - N/A   Overcast
8:35 PM 44.6 °F - 41.0 °F 87% 30.23 in 10.0 mi Calm Calm - N/A   Overcast
8:55 PM 42.8 °F - 41.0 °F 93% 30.23 in 10.0 mi Calm Calm - N/A   Mostly Cloudy
9:15 PM 41.0 °F - 39.2 °F 93% 30.23 in 7.0 mi Calm Calm - N/A   Scattered Clouds
9:35 PM 41.0 °F 39.0 °F 41.0 °F 100% 30.24 in 7.0 mi North 3.5 mph - N/A   Mostly Cloudy
9:55 PM 42.8 °F 40.1 °F 42.8 °F 100% 30.25 in 10.0 mi North 4.6 mph - N/A   Overcast
10:15 PM 44.6 °F 43.1 °F 42.8 °F 93% 30.25 in 10.0 mi North 3.5 mph - N/A   Overcast
10:35 PM 44.6 °F 43.1 °F 42.8 °F 93% 30.25 in 10.0 mi NNE 3.5 mph - N/A   Overcast
10:55 PM 44.6 °F - 41.0 °F 87% 30.26 in 10.0 mi Calm Calm - N/A   Overcast
11:15 PM 44.6 °F - 41.0 °F 87% 30.26 in 10.0 mi Calm Calm - N/A   Overcast
11:55 PM 44.6 °F - 37.4 °F 76% 30.27 in 10.0 mi Calm Calm - N/A   Overcast